Tracking 30995 objects as of 5-Jul-2025
HD Live streaming from Space Station
objects crossing your sky now

ONEWEB-0020

Track ONEWEB-0020 now!
10-day predictions
ONEWEB-0020 is classified as:


NORAD ID: 45133
Int'l Code: 2019-071K
Perigee: 1,227.4 km
Apogee: 1,230.3 km
Inclination: 87.9 °
Period: 109.9 minutes
Semi major axis: 7599 km
RCS: Unknown
Launch date: November 2, 2019
Source: United States (US)
Launch site: WALLOPS ISLAND (WLPIS)
Your satellite tracking list
FENGYUN 1C DEB
Track 1 satellite(s)




NASA's NSSDC Master Catalog

Two Line Element Set (TLE):
1 45133U 20008C   25186.84131015  .00000750  00000-0  21128-2 0  9999
2 45133  87.8827 105.3315 0001928  72.7764 287.3574 13.10372641263767
Source of the keplerian elements: AFSPC